PulseSat

PulseSat

MOLNIYA 1-36

Last updated on Feb. 16, 2019, 3:05 a.m. UTC

1 09880U 77021A   19046.10789311 -.00001440  00000-0  35465-3 0  9998
2 09880  61.7871 103.3045 7404371 276.8607  11.8229  2.00557795205016
UTC
Height (km)
Latitude
Longitude
Inclination
Orbital Period

Next 30 passes for location: Hong Kong

Rise time Rise Azimuth (degrees) Set time Set Azimuth (degrees) Duration Max altitude (degrees)

No matching passes for this satellites

PulseSat

PulseSat is the new satellites software and hardware trackering solution by Pulsely.
Satellite Two Line Element Set source: US Air Force Space Command

Download PulseSat for iOS
© 2017 Pulsely Limited